This demonstration page uses our WeatherBlox Daily Observations layout. Learn more.

Left ArrowRight Arrow

40.92945, -100.16068

Hourly Observations for January 31, 2021

Temp ( °F °C ) Dew Point ( °F °C ) Humidity (%) Winds ( mph kmh ) Pressure ( in mb ) Visibility ( mi km ) Precip ( " mm )
12:15 am 00:15 Cloudy 26 -3.2 23 -5.2 86 86 NNW 21 33 30.24 1024 10 16 N/A
12:35 am 00:35 Cloudy 26 -3.2 23 -5.1 87 87 NNW 25 41 30.25 1024 7 11 N/A
12:55 am 00:55 Cloudy 26 -3.3 23 -5.2 87 87 NNW 23 37 30.26 1025 7 11 N/A
1:15 am 01:15 Cloudy 26 -3.1 23 -5 87 87 NW 21 33 30.27 1025 7 11 N/A
1:35 am 01:35 Cloudy 27 -3 23 -5 86 86 NNW 20 31 30.27 1025 10 16 N/A
1:55 am 01:55 Cloudy 27 -3 23 -5 86 86 NNW 15 24 30.28 1025 10 16 N/A
2:15 am 02:15 Cloudy 27 -2.8 23 -5 85 85 NNW 17 28 30.28 1025 10 16 N/A
2:35 am 02:35 Cloudy 27 -2.8 23 -4.8 86 86 NNW 17 28 30.30 1026 10 16 N/A
2:55 am 02:55 Cloudy 27 -2.7 24 -4.7 86 86 NNW 15 24 30.30 1026 10 16 N/A
3:15 am 03:15 Cloudy 28 -2.5 24 -4.5 86 86 NNW 17 28 30.31 1027 10 16 N/A
3:35 am 03:35 Cloudy 28 -2.5 24 -4.2 88 88 NNW 15 24 30.31 1027 10 16 N/A
3:55 am 03:55 Cloudy 28 -2.2 25 -3.8 89 89 NNW 15 24 30.31 1026 10 16 N/A
4:15 am 04:15 Cloudy 28 -2.1 25 -3.7 89 89 NNW 16 26 30.31 1026 7 11 N/A
4:35 am 04:35 Cloudy 29 -1.8 26 -3.6 88 88 NNW 18 30 30.31 1026 10 16 N/A
4:55 am 04:55 Cloudy 29 -1.6 26 -3.6 86 86 NNW 15 24 30.31 1027 7 11 N/A
5:15 am 05:15 Cloudy 29 -1.6 25 -3.7 86 86 NNW 17 28 30.32 1027 7 11 N/A
5:35 am 05:35 Cloudy 28 -2 25 -4 86 86 NNW 14 22 30.33 1027 7 11 N/A
5:55 am 05:55 Cloudy 28 -2.1 24 -4.2 86 86 NNW 16 26 30.35 1028 10 16 N/A
6:15 am 06:15 Cloudy 28 -2.1 24 -4.2 86 86 NNW 14 22 30.36 1028 10 16 N/A
6:35 am 06:35 Cloudy 29 -1.9 25 -4.1 85 85 NNW 15 24 30.36 1028 10 16 N/A
6:55 am 06:55 Cloudy 29 -1.7 25 -3.9 85 85 NW 13 20 30.36 1028 7 11 N/A
7:15 am 07:15 Cloudy 29 -1.8 25 -4 85 85 NW 13 20 30.38 1029 10 16 N/A
7:35 am 07:35 Cloudy 29 -1.7 25 -4 85 85 NNW 15 24 30.37 1029 10 16 N/A
7:55 am 07:55 Cloudy 28 -2 25 -4 86 86 NW 10 17 30.39 1029 7 11 N/A
8:15 am 08:15 Cloudy 28 -2.1 25 -4 87 87 NW 8 13 30.40 1029 7 11 N/A
8:35 am 08:35 Partly Cloudy 26 -3.3 23 -5.2 87 87 NNW 10 17 30.41 1030 7 11 N/A
8:55 am 08:55 Partly Cloudy 26 -3.1 23 -5.1 86 86 NW 8 13 30.42 1030 10 16 N/A
9:15 am 09:15 Sunny 26 -3.3 23 -5.1 88 88 WNW 9 15 30.44 1031 7 11 N/A
9:35 am 09:35 Sunny 27 -3 23 -5.1 86 86 WNW 9 15 30.44 1031 10 16 N/A
9:55 am 09:55 Sunny 27 -2.6 23 -5 84 84 WNW 9 15 30.43 1031 10 16 N/A
10:15 am 10:15 Sunny 28 -2.1 24 -4.7 83 83 WNW 10 17 30.45 1031 10 16 N/A
10:35 am 10:35 Sunny 29 -1.8 24 -4.5 82 82 WNW 13 20 30.46 1031 10 16 N/A
10:55 am 10:55 Sunny 30 -1.2 25 -4 82 82 WNW 12 19 30.45 1031 10 16 N/A
11:15 am 11:15 Sunny 31 -0.6 26 -3.6 80 80 WNW 10 17 30.45 1031 10 16 N/A
11:35 am 11:35 Sunny 32 undefined 26 -3.1 80 80 NW 10 17 30.46 1031 10 16 N/A
11:55 am 11:55 Sunny 33 0.8 28 -2.1 81 81 NW 12 19 30.43 1030 10 16 N/A
12:15 pm 12:15 Sunny 35 1.8 29 -1.7 78 78 NW 13 20 30.42 1030 10 16 N/A
12:35 pm 12:35 Sunny 36 2.1 29 -1.7 76 76 NW 14 22 30.42 1030 10 16 N/A
12:55 pm 12:55 Sunny 36 2.4 29 -1.6 75 75 NW 13 20 30.40 1030 10 16 N/A
1:15 pm 13:15 Sunny 37 2.5 29 -1.6 75 75 NNW 12 19 30.40 1030 10 16 N/A
1:35 pm 13:35 Sunny 37 2.6 29 -1.4 75 75 NNW 9 15 30.39 1029 10 16 N/A
1:55 pm 13:55 Sunny 37 3 30 -0.9 76 76 NNW 9 15 30.39 1029 10 16 N/A
2:15 pm 14:15 Sunny 38 3.5 31 -0.6 75 75 NNW 10 17 30.38 1029 10 16 N/A
2:35 pm 14:35 Sunny 39 3.8 31 -0.5 74 74 NNW 8 13 30.37 1028 10 16 N/A
2:55 pm 14:55 Sunny 39 4 31 -0.5 73 73 NNW 9 15 30.38 1029 10 16 N/A
3:15 pm 15:15 Sunny 40 4.3 31 -0.3 72 72 NNW 8 13 30.38 1029 10 16 N/A
3:35 pm 15:35 Sunny 40 4.4 31 -0.3 72 72 NNW 8 13 30.37 1029 10 16 N/A
3:55 pm 15:55 Sunny 40 4.2 32 undefined 74 74 NNW 7 11 30.38 1029 10 16 N/A
4:15 pm 16:15 Sunny 40 4.3 32 undefined 74 74 NW 6 9 30.39 1029 10 16 N/A
4:35 pm 16:35 Sunny 40 4.2 32 undefined 74 74 WNW 6 9 30.39 1029 10 16 N/A
4:55 pm 16:55 Sunny 39 3.7 32 undefined 77 77 W 7 11 30.40 1030 10 16 N/A
5:15 pm 17:15 Sunny 38 3.4 32 undefined 79 79 W 7 11 30.40 1030 10 16 N/A
5:35 pm 17:35 Sunny 37 2.7 32 undefined 83 83 W 9 15 30.41 1030 10 16 N/A
5:55 pm 17:55 Sunny 36 2 31 -0.5 84 84 W 6 9 30.42 1030 10 16 N/A
6:15 pm 18:15 Clear 35 1.6 31 -0.8 84 84 W 5 7 30.42 1030 10 16 N/A
6:35 pm 18:35 Clear 34 1.3 30 -0.9 85 85 WNW 3 6 30.43 1030 10 16 N/A
6:55 pm 18:55 Clear 33 0.3 29 -1.5 88 88 WNW 3 6 30.44 1031 10 16 N/A
7:15 pm 19:15 Clear 32 -0.1 29 -1.5 90 90 W 3 6 30.44 1031 10 16 N/A
7:35 pm 19:35 Clear 30 -1 28 -2.4 90 90 SW 5 7 30.45 1031 10 16 N/A
7:55 pm 19:55 Clear 28 -2 26 -3.3 91 91 SW 3 6 30.45 1031 10 16 N/A
8:15 pm 20:15 Clear 28 -2.1 26 -3.1 93 93 N N/A 30.46 1031 10 16 N/A
8:35 pm 20:35 Clear 28 -2.5 26 -3.4 94 94 WSW 3 6 30.46 1032 10 16 N/A
8:55 pm 20:55 Clear 26 -3.2 24 -4.3 92 92 SW 3 6 30.47 1032 10 16 N/A
9:15 pm 21:15 Clear 26 -3.2 24 -4.3 92 92 W 5 7 30.48 1032 10 16 N/A
9:35 pm 21:35 Clear 24 -4.3 22 -5.5 91 91 W 6 9 30.49 1033 10 16 N/A
10:15 pm 22:15 Clear 24 -4.4 22 -5.4 93 93 WNW 7 11 30.49 1033 10 16 N/A
10:35 pm 22:35 Clear 23 -4.9 22 -5.7 94 94 N N/A 30.51 1033 10 16 N/A
10:55 pm 22:55 Clear 25 -3.7 24 -4.6 94 94 NNW 5 7 30.50 1033 10 16 N/A
11:15 pm 23:15 Clear 23 -4.8 22 -5.5 95 95 NNW 3 6 30.51 1033 7 11 N/A
11:35 pm 23:35 Clear 23 -4.8 22 -5.5 95 95 NW 3 6 30.51 1033 7 11 N/A
11:55 pm 23:55 Clear 22 -5.5 21 -6.2 95 95 NW 6 9 30.51 1033 7 11 N/A

Powered by AerisWeather